This demonstration page uses our WeatherBlox Daily Observations layout. Learn more.

Left ArrowRight Arrow

39.95238, -75.16362

Hourly Observations for May 16, 2016

Temp ( °F °C ) Dew Point ( °F °C ) Humidity (%) Winds ( mph kmh ) Pressure ( in mb ) Visibility ( mi km ) Precip ( " mm )
12:54 am 00:54 Clear 46 7.8 30 -1.1 54 54 W 8 13 30.08 1019 10 16 0.00 0.00
1:54 am 01:54 Clear 45 7.2 30 -1.1 56 56 W 9 15 30.08 1019 10 16 0.00 0.00
2:54 am 02:54 Clear 43 6.1 30 -1.1 60 60 W 9 15 30.09 1019 10 16 0.00 0.00
3:54 am 03:54 Mostly Clear 43 6.1 29 -1.7 58 58 W 9 15 30.10 1019 10 16 0.00 0.00
4:54 am 04:54 Mostly Clear 44 6.7 28 -2.2 53 53 W 10 17 30.11 1020 10 16 0.00 0.00
5:54 am 05:54 Partly Cloudy 45 7.2 28 -2.2 52 52 W 13 20 30.12 1020 10 16 0.00 0.00
6:54 am 06:54 Mostly Sunny 44 6.7 29 -1.7 55 55 W 13 20 30.16 1021 10 16 0.00 0.00
7:54 am 07:54 Sunny 47 8.3 28 -2.2 48 48 WNW 15 24 30.18 1022 10 16 0.00 0.00
8:54 am 08:54 Mostly Sunny 50 10 25 -3.9 38 38 WNW 16 26 30.18 1022 10 16 0.00 0.00
9:54 am 09:54 Mostly Sunny 52 11.1 24 -4.4 34 34 WNW 20 31 30.17 1022 10 16 0.00 0.00
10:54 am 10:54 Mostly Sunny 54 12.2 23 -5 30 30 W 18 30 30.17 1022 10 16 0.00 0.00
11:54 am 11:54 Mostly Sunny 56 13.3 24 -4.4 29 29 WNW 23 37 30.17 1022 10 16 0.00 0.00
12:54 pm 12:54 Partly Cloudy 59 15 24 -4.4 26 26 WNW 18 30 30.15 1021 10 16 0.00 0.00
1:54 pm 13:54 Mostly Sunny 62 16.7 26 -3.3 25 25 WNW 21 33 30.14 1021 10 16 0.00 0.00
2:54 pm 14:54 Mostly Sunny 64 17.8 27 -2.8 25 25 WNW 17 28 30.12 1020 10 16 0.00 0.00
3:54 pm 15:54 Mostly Sunny 65 18.3 27 -2.8 24 24 W 22 35 30.11 1020 10 16 0.00 0.00
4:54 pm 16:54 Mostly Sunny 66 18.9 29 -1.7 25 25 W 23 37 30.11 1020 10 16 0.00 0.00
5:54 pm 17:54 Mostly Sunny 66 18.9 29 -1.7 25 25 W 12 19 30.12 1020 10 16 0.00 0.00
6:54 pm 18:54 Mostly Sunny 66 18.9 28 -2.2 24 24 W 16 26 30.13 1020 10 16 0.00 0.00
7:54 pm 19:54 Partly Cloudy 64 17.8 29 -1.7 27 27 W 12 19 30.14 1021 10 16 0.00 0.00
8:54 pm 20:54 Partly Cloudy 62 16.7 33 0.6 34 34 SW 9 15 30.15 1021 10 16 0.00 0.00
9:54 pm 21:54 Mostly Cloudy 60 15.6 36 2.2 41 41 SW 10 17 30.18 1022 10 16 0.00 0.00
10:54 pm 22:54 Mostly Cloudy 58 14.4 36 2.2 44 44 SW 12 19 30.19 1022 10 16 0.00 0.00
11:54 pm 23:54 Mostly Cloudy 58 14.4 38 3.3 48 48 SW 10 17 30.20 1023 10 16 0.00 0.00

Powered by AerisWeather